This is the latest recevied weather packets stored in our database for station/object AD0YN. If no packets are shown the sender has not sent any weather packets the latest 10 day(s).
| Time | Temp. | Humidity | Pressure | Rain* | Wind** | Luminosity | Snow |
|---|---|---|---|---|---|---|---|
| 1777767858 | 16.67° C | 31% | 1017.6 hPa | 0 mm | - | 43 W/m² | - |
| 1777767554 | 17.22° C | 30% | 1017.4 hPa | 0 mm | - | 51 W/m² | - |
| 1777767250 | 17.22° C | 32% | 1017.6 hPa | 0 mm | - | 60 W/m² | - |
| 1777766949 | 16.67° C | 31% | 1017.6 hPa | 0 mm | - | 72 W/m² | - |
| 1777766645 | 17.22° C | 30% | 1017.7 hPa | 0 mm | - | 83 W/m² | - |
| 1777766342 | 17.22° C | 33% | 1017.7 hPa | 0 mm | - | 94 W/m² | - |
| 1777766039 | 16.67° C | 31% | 1017.8 hPa | 0 mm | - | 108 W/m² | - |
| 1777765736 | 17.22° C | 31% | 1017.8 hPa | 0 mm | - | 122 W/m² | - |
| 1777765433 | 17.22° C | 30% | 1017.7 hPa | 0 mm | - | 137 W/m² | - |
| 1777765130 | 17.22° C | 29% | 1017.7 hPa | 0 mm | - | 151 W/m² | - |
| 1777764826 | 17.78° C | 29% | 1017.7 hPa | 0 mm | - | 166 W/m² | - |
| 1777764523 | 17.78° C | 28% | 1017.9 hPa | 0 mm | - | 183 W/m² | - |
| 1777764219 | 17.78° C | 28% | 1017.9 hPa | 0 mm | - | 199 W/m² | - |
| 1777763916 | 17.22° C | 29% | 1017.9 hPa | 0 mm | - | 215 W/m² | - |
| 1777763614 | 17.22° C | 30% | 1017.9 hPa | 0 mm | - | 232 W/m² | - |
| 1777763312 | 17.78° C | 28% | 1017.9 hPa | 0 mm | - | 249 W/m² | - |
| 1777763010 | 17.78° C | 29% | 1017.8 hPa | 0 mm | - | 268 W/m² | - |
| 1777762706 | 17.78° C | 28% | 1017.9 hPa | 0 mm | - | 289 W/m² | - |
| 1777762403 | 17.78° C | 27% | 1017.9 hPa | 0 mm | - | 301 W/m² | - |
| 1777762100 | 17.22° C | 30% | 1018.2 hPa | 0 mm | - | 329 W/m² | - |
| 1777761796 | 17.22° C | 29% | 1017.9 hPa | 0 mm | - | 345 W/m² | - |
| 1777761494 | 17.22° C | 29% | 1018 hPa | 0 mm | - | 342 W/m² | - |
| 1777761191 | 17.22° C | 28% | 1018 hPa | 0 mm | - | 385 W/m² | - |
| 1777760889 | 17.78° C | 29% | 1018.3 hPa | 0 mm | - | 399 W/m² | - |
| 1777760586 | 17.22° C | 29% | 1018.1 hPa | 0 mm | - | 419 W/m² | - |
* Rain latest hour (hover to see other rain measurements)
** Current wind speed in m/s (hover to see current wind gust speed)